User: anonymous   Login
Location: Key Biscayne
(25.6930°N, 80.1630°W)
Time: 08:26:48
(UTC-04:00)
Language:

CZ-2D R/B - Orbit

View from above orbital plane
View from above orbital plane
View from above satellite
View from above satellite

Ground track
Ground track

The orbit data is extracted from the following two-line orbital elements,

1 28738U 05024B   16210.15151719  .00000443  00000-0  30616-4 0  9990
2 28738  97.5390 246.6504 0013441  44.7082 315.5229 15.10637253606886
Epoch (UTC): 28 July 2016 03:38:11
Eccentricity: 0.0013441
inclination: 97.5390°
perigee height: 525 km
apogee height: 543 km
right ascension of ascending node: 246.6504°
argument of perigee: 44.7082°
revolutions per day: 15.10637253
mean anomaly at epoch: 315.5229°
orbit number at epoch: 60688

The dashed part of the orbit path shows where the satellite is in the earth's shadow,  

DLR